Time,TemperatureF,DewpointF,PressureIn,WindDirection,WindDirectionDegrees,WindSpeedMPH,WindSpeedGustMPH,Humidity,HourlyPrecipIn,Conditions,Clouds,dailyrainin,SoftwareType,DateUTC
2013-08-20 00:22:00,58.0,57.0,29.91,SW,222,0.0,0.0,98,0.00,,,0.00,,2013-08-20 05:22:00,
2013-08-20 00:42:00,58.0,57.0,29.91,SW,222,0.0,0.0,98,0.00,,,0.00,,2013-08-20 05:42:00,
2013-08-20 00:52:00,57.0,56.0,29.91,SW,222,0.0,0.0,98,0.00,,,0.00,,2013-08-20 05:52:00,
2013-08-20 01:11:00,57.0,56.0,29.92,SW,221,0.0,0.0,98,0.00,,,0.00,,2013-08-20 06:11:00,
2013-08-20 01:21:00,57.0,56.0,29.91,SW,221,0.0,0.0,98,0.00,,,0.00,,2013-08-20 06:21:00,
2013-08-20 01:42:00,56.0,55.0,29.92,SW,221,0.0,0.0,98,0.00,,,0.00,,2013-08-20 06:42:00,
2013-08-20 01:52:00,56.0,55.0,29.92,SW,221,0.0,0.0,98,0.00,,,0.00,,2013-08-20 06:52:00,
2013-08-20 02:11:00,56.0,55.0,29.91,SW,221,0.0,0.0,98,0.00,,,0.00,,2013-08-20 07:11:00,
2013-08-20 02:22:00,56.0,56.0,29.91,SW,222,0.0,0.0,99,0.00,,,0.00,,2013-08-20 07:22:00,
2013-08-20 02:42:00,55.0,55.0,29.91,SW,222,0.0,0.0,99,0.00,,,0.00,,2013-08-20 07:42:00,
2013-08-20 02:52:00,56.0,56.0,29.91,SW,221,0.0,0.0,99,0.00,,,0.00,,2013-08-20 07:52:00,
2013-08-20 03:11:00,55.0,55.0,29.91,SW,222,0.0,0.0,99,0.00,,,0.00,,2013-08-20 08:11:00,
2013-08-20 03:21:00,55.0,55.0,29.91,SW,222,0.0,0.0,99,0.00,,,0.00,,2013-08-20 08:21:00,
2013-08-20 03:52:00,55.0,55.0,29.92,SW,222,0.0,0.0,99,0.00,,,0.00,,2013-08-20 08:52:00,
2013-08-20 04:11:00,55.0,55.0,29.92,SW,222,0.0,0.0,99,0.00,,,0.00,,2013-08-20 09:11:00,
2013-08-20 04:21:00,55.0,55.0,29.92,SW,222,0.0,0.0,99,0.00,,,0.00,,2013-08-20 09:21:00,
2013-08-20 04:42:00,55.0,55.0,29.92,SW,222,0.0,0.0,99,0.00,,,0.00,,2013-08-20 09:42:00,
2013-08-20 04:53:00,55.0,55.0,29.91,SW,222,0.0,0.0,99,0.00,,,0.00,,2013-08-20 09:53:00,
2013-08-20 05:12:00,55.0,55.0,29.92,SW,221,0.0,0.0,99,0.00,,,0.00,,2013-08-20 10:12:00,
2013-08-20 05:22:00,55.0,55.0,29.92,SW,221,0.0,0.0,99,0.00,,,0.00,,2013-08-20 10:22:00,
2013-08-20 05:42:00,55.0,55.0,29.92,SW,221,0.0,0.0,99,0.00,,,0.00,,2013-08-20 10:42:00,
2013-08-20 05:52:00,55.0,55.0,29.93,SW,222,0.0,0.0,99,0.00,,,0.00,,2013-08-20 10:52:00,
2013-08-20 06:11:00,55.0,55.0,29.93,SW,222,0.0,0.0,99,0.00,,,0.00,,2013-08-20 11:11:00,
2013-08-20 06:22:00,54.0,54.0,29.94,SW,221,0.0,0.0,99,0.00,,,0.00,,2013-08-20 11:22:00,
2013-08-20 06:42:00,54.0,54.0,29.94,SW,222,0.0,0.0,99,0.00,,,0.00,,2013-08-20 11:42:00,
2013-08-20 06:52:00,54.0,54.0,29.94,SW,222,0.0,0.0,99,0.00,,,0.00,,2013-08-20 11:52:00,
2013-08-20 07:12:00,55.0,55.0,29.95,SW,222,0.0,0.0,99,0.00,,,0.00,,2013-08-20 12:12:00,
2013-08-20 07:21:00,56.0,56.0,29.95,SW,222,0.0,0.0,100,0.00,,,0.00,,2013-08-20 12:21:00,
2013-08-20 07:42:00,57.0,57.0,29.95,SW,222,0.0,0.0,100,0.00,,,0.00,,2013-08-20 12:42:00,
2013-08-20 07:52:00,58.0,58.0,29.96,SW,222,0.0,0.0,100,0.00,,,0.00,,2013-08-20 12:52:00,
2013-08-20 08:11:00,59.0,59.0,29.96,SW,222,0.0,0.0,100,0.00,,,0.00,,2013-08-20 13:11:00,
2013-08-20 08:22:00,62.0,62.0,29.95,SW,223,0.0,0.0,100,0.00,,,0.00,,2013-08-20 13:22:00,
2013-08-20 08:42:00,64.0,64.0,29.95,SW,224,0.0,0.0,100,0.00,,,0.00,,2013-08-20 13:42:00,
2013-08-20 08:52:00,66.0,66.0,29.95,SW,224,0.0,0.0,100,0.00,,,0.00,,2013-08-20 13:52:00,
2013-08-20 09:11:00,67.0,67.0,29.95,NNE,15,0.0,1.0,100,0.00,,,0.00,,2013-08-20 14:11:00,
2013-08-20 09:21:00,70.0,68.0,29.95,NW,308,0.0,1.0,94,0.00,,,0.00,,2013-08-20 14:21:00,
2013-08-20 09:42:00,73.0,68.0,29.95,ESE,120,0.0,3.0,85,0.00,,,0.00,,2013-08-20 14:42:00,
2013-08-20 09:52:00,75.0,68.0,29.95,NE,53,1.0,3.0,79,0.00,,,0.00,,2013-08-20 14:52:00,
2013-08-20 10:11:00,76.0,69.0,29.94,NW,321,1.0,2.0,78,0.00,,,0.00,,2013-08-20 15:11:00,
2013-08-20 10:22:00,77.0,68.0,29.94,NNE,15,0.0,4.0,74,0.00,,,0.00,,2013-08-20 15:22:00,
2013-08-20 10:43:00,78.0,68.0,29.93,ENE,74,1.0,2.0,71,0.00,,,0.00,,2013-08-20 15:43:00,
2013-08-20 10:53:00,79.0,69.0,29.93,NNW,341,0.0,3.0,72,0.00,,,0.00,,2013-08-20 15:53:00,
2013-08-20 11:15:00,79.0,69.0,29.93,NNW,336,1.0,4.0,71,0.00,,,0.00,,2013-08-20 16:15:00,
2013-08-20 11:30:00,-999.0,-99.9,29.93,NNW,339,0.0,2.0,71,0.00,,,0.00,,2013-08-20 16:30:00,
2013-08-20 11:42:00,82.0,70.0,29.92,WNW,302,2.0,4.0,67,0.00,,,0.00,,2013-08-20 16:42:00,
2013-08-20 11:52:00,83.0,71.0,29.92,NE,43,0.0,4.0,67,0.00,,,0.00,,2013-08-20 16:52:00,
2013-08-20 12:12:00,83.0,69.0,29.92,WSW,240,0.0,3.0,62,0.00,,,0.00,,2013-08-20 17:12:00,
2013-08-20 12:24:00,83.0,69.0,29.91,ENE,74,0.0,5.0,63,0.00,,,0.00,,2013-08-20 17:24:00,
2013-08-20 12:43:00,84.0,70.0,29.91,South,169,0.0,5.0,64,0.00,,,0.00,,2013-08-20 17:43:00,
2013-08-20 12:52:00,84.0,70.0,29.91,South,169,0.0,5.0,64,0.00,,,0.00,,2013-08-20 17:52:00,
2013-08-20 13:12:00,85.0,69.0,29.91,SSW,200,1.0,7.0,58,0.00,,,0.00,,2013-08-20 18:12:00,
2013-08-20 13:22:00,85.0,69.0,29.91,WNW,288,1.0,8.0,59,0.00,,,0.00,,2013-08-20 18:22:00,
2013-08-20 13:52:00,85.0,68.0,29.89,West,278,1.0,6.0,56,0.00,,,0.00,,2013-08-20 18:52:00,
2013-08-20 14:11:00,86.0,67.0,29.89,NE,43,1.0,7.0,54,0.00,,,0.00,,2013-08-20 19:11:00,
2013-08-20 14:21:00,85.0,69.0,29.89,SW,226,0.0,4.0,58,0.00,,,0.00,,2013-08-20 19:21:00,
2013-08-20 14:42:00,86.0,67.0,29.89,South,190,1.0,6.0,54,0.00,,,0.00,,2013-08-20 19:42:00,
2013-08-20 14:52:00,85.0,68.0,29.89,West,259,0.0,5.0,56,0.00,,,0.00,,2013-08-20 19:52:00,
2013-08-20 15:12:00,85.0,69.0,29.88,NE,39,1.0,6.0,58,0.00,,,0.00,,2013-08-20 20:12:00,
2013-08-20 15:22:00,83.0,68.0,29.88,ESE,122,0.0,5.0,61,0.00,,,0.00,,2013-08-20 20:22:00,
2013-08-20 15:42:00,85.0,70.0,29.87,NE,49,0.0,3.0,60,0.00,,,0.00,,2013-08-20 20:42:00,
2013-08-20 15:52:00,86.0,68.0,29.87,East,97,1.0,4.0,56,0.00,,,0.00,,2013-08-20 20:52:00,
2013-08-20 16:11:00,85.0,69.0,29.87,SW,217,0.0,8.0,59,0.00,,,0.00,,2013-08-20 21:11:00,
2013-08-20 16:22:00,85.0,68.0,29.87,NNW,339,2.0,6.0,57,0.00,,,0.00,,2013-08-20 21:22:00,
2013-08-20 16:44:00,84.0,69.0,29.87,SE,142,1.0,4.0,60,0.00,,,0.00,,2013-08-20 21:44:00,
2013-08-20 16:55:00,85.0,69.0,29.87,ENE,64,0.0,4.0,59,0.00,,,0.00,,2013-08-20 21:55:00,
2013-08-20 17:14:00,84.0,69.0,29.86,NNW,330,0.0,4.0,60,0.00,,,0.00,,2013-08-20 22:14:00,
2013-08-20 17:24:00,84.0,69.0,29.86,NW,316,0.0,4.0,60,0.00,,,0.00,,2013-08-20 22:24:00,
2013-08-20 17:42:00,84.0,70.0,29.86,SSE,155,0.0,4.0,62,0.00,,,0.00,,2013-08-20 22:42:00,
2013-08-20 17:53:00,83.0,69.0,29.86,NNE,15,1.0,5.0,63,0.00,,,0.00,,2013-08-20 22:53:00,
2013-08-20 18:12:00,82.0,69.0,29.86,North,349,0.0,5.0,64,0.00,,,0.00,,2013-08-20 23:12:00,
2013-08-20 18:22:00,81.0,69.0,29.86,NE,44,0.0,5.0,68,0.00,,,0.00,,2013-08-20 23:22:00,
2013-08-20 18:42:00,80.0,68.0,29.85,West,271,0.0,2.0,67,0.00,,,0.00,,2013-08-20 23:42:00,
2013-08-20 18:52:00,80.0,69.0,29.86,NNW,337,0.0,4.0,69,0.00,,,0.00,,2013-08-20 23:52:00,
2013-08-20 19:12:00,79.0,70.0,29.86,ESE,120,0.0,3.0,73,0.00,,,0.00,,2013-08-21 00:12:00,
2013-08-20 19:22:00,78.0,68.0,29.85,NNE,22,0.0,2.0,72,0.00,,,0.00,,2013-08-21 00:22:00,
2013-08-20 19:42:00,76.0,69.0,29.86,NW,322,0.0,0.0,79,0.00,,,0.00,,2013-08-21 00:42:00,
2013-08-20 19:52:00,75.0,69.0,29.85,SE,145,0.0,3.0,81,0.00,,,0.00,,2013-08-21 00:52:00,